Regional Weather Roundup
Issued by NWS

Home | Current Version | Previous Version | Graphics & Text | Print | Product List | Glossary On
Versions: 1 2 3 4 5 6 7 8 9 10 11 12 13 14 15 16 17 18 19 20 21 22 23 24 25 26 27 28 29 30 31 32 33 34 35 36 37 38 39 40 41 42 43 44 45 46 47 48 49 50
361
ASUS44 KLIX 220510
RWRLA
LOUISIANA WEATHER ROUNDUP
NATIONAL WEATHER SERVICE NEW ORLEANS LA
1200 AM CDT WED OCT 22 2014

NOTE: "FAIR" INDICATES FEW OR NO CLOUDS BELOW 12,000 FEET WITH NO
      SIGNIFICANT WEATHER AND/OR OBSTRUCTIONS TO VISIBILITY.
      SKY/WX - SKY CONDITION AND SIGNIFICANT WEATHER.
      TMP - AIR TEMPERATURE.    DP   - DEWPOINT TEMPERATURE.
      RH  - RELATIVE HUMIDITY.  PRES - PRESSURE.
      HX  - HEAT INDEX.         WCI  - WIND CHILL INDEX.

*  THESE STATIONS ARE NOT NWS OR FAA STATIONS AND ARE NOT UNDER
   NWS QUALITY CONTROL.

LAZ040-048-061>063-065-066-069-220600-
SOUTHEAST LOUISIANA

CITY           SKY/WX    TMP DP  RH WIND       PRES   REMARKS
N.O. AUDUBON     N/A     64  61  91 MISG        N/A
N.O. INTL ARPT CLEAR     64  56  75 CALM      30.03S
N.O. LAKEFRONT CLEAR     73  59  61 NE9       30.03F
N.O. DOWNTOWN* FAIR      70  55  60 CALM      30.03F
SLIDELL        CLEAR     57  53  86 N3        30.03F
BATON ROUGE    CLEAR     60  57  89 CALM      30.05S
BOOTHVILLE     CLEAR     69  63  81 CALM      30.02S
BELLE CHASSE   CLEAR     57  53  86 CALM      30.02F
BOGALUSA*        N/A     56  53  88 CALM      30.05S
NEW ROADS*     FAIR      62  59  88 CALM      30.05S
GONZALES*      FAIR      59  59 100 CALM      30.03F
HAMMOND*       CLEAR     59  54  82 CALM      30.06S
HOUMA*         CLEAR     58  56  94 CALM      30.02F
PORT FOURCHON* CLEAR     72  61  68 NE5       30.04F

$$

LAZ041-044-053-054-220600-
SOUTHWEST LOUISIANA

CITY           SKY/WX    TMP DP  RH WIND       PRES   REMARKS
LAKE CHARLES   CLEAR     62  60  93 CALM      30.04S
LAFAYETTE      CLEAR     62  61  96 CALM      30.04F
PATTERSON      CLEAR     59  57  94 CALM      30.05S
SALT POINT       N/A     66  61  84 CALM      30.02F
NEW IBERIA     CLEAR     67  60  78 NE8       30.04F
CHENAULT AIRPK CLEAR     64  61  92 CALM      30.05S

$$

LAZ027-028-220600-
CENTRAL LOUISIANA

CITY           SKY/WX    TMP DP  RH WIND       PRES   REMARKS
FORT POLK      CLEAR     63  61  93 NE2       30.05S
ALEXANDRIA INT CLEAR     64  60  87 N5        30.04F
ALEXANDRIA     PTCLDY    57  57 100 CALM      30.06S FOG

$$

LAZ001-002-220600-
NORTHWEST LOUISIANA

CITY           SKY/WX    TMP DP  RH WIND       PRES   REMARKS
SHREVEPORT     CLEAR     61  59  93 CALM      30.07S
BARKSDALE AFB  CLEAR     60  59  94 CALM      30.08R
DTN SHREVEPORT CLEAR     61  59  93 CALM      30.08R

$$

LAZ014-016-220600-
NORTHEAST LOUISIANA

CITY           SKY/WX    TMP DP  RH WIND       PRES   REMARKS
MONROE         CLEAR     62  59  90 NE3       30.08S
TALLULAH       CLEAR     56  54  93 N3        30.07S

$$




USA.gov is the U.S. government's official web portal to all federal, state and local government web resources and services.